Simultaneous Nadir Overpasses (SNOs) Predictions

Prediction of SNOs between GOES-17 and AQUA Satellite Orbit:

Table of predicted SNOs for the next 14.0 days since TLE Epoch: 8/26/2022
Index Date Time (GOES-17) GOES-17 Lat,Lon AQUA Lat,Lon Distance(km) Time Diff (sec)
1 08/27/2022 10:33:27 0.07,-137.32 -0.71,-133.78 403.52 80
2 08/27/2022 22:54:42 -0.07,-137.32 -0.43,-138.92 183.12 80
3 08/29/2022 22:44:42 -0.07,-137.32 0.26,-135.85 167.81 80
4 08/30/2022 11:03:10 0.07,-137.32 0.82,-140.97 414.56 80
5 09/01/2022 10:50:29 0.07,-137.31 0.17,-137.88 64.56 80
6 09/03/2022 10:40:28 0.07,-137.30 -0.48,-134.80 284.39 80
7 09/03/2022 22:59:04 -0.06,-137.29 -0.65,-139.95 302.98 80
8 09/05/2022 22:49:03 -0.05,-137.26 0.02,-136.86 44.69 80
9 09/07/2022 22:36:22 -0.05,-137.23 0.69,-133.78 391.82 80
10 09/08/2022 10:54:50 0.04,-137.22 0.40,-138.90 191.52 80
